SL-14 DEB

Satellite information

Favourite Embed

Satellite Type and Status

DEBRISIN ORBIT

Key statistics

Satellite SL-14 DEB at a glance.

Uptime

17223

Days in orbit

Revolutions

≈ 12.8

Per day

Orbit

LEO

Low Earth Orbit

Inclination

82.3

Latest

Satellite identification and parameters

Extended collection of information and parameters for SL-14 DEB.

Object identification

Identified? True

Debris? True

Object name: SL-14 DEB

International designator: 1978-100K

Object number (NORAD): 19137

Object ID (CCSDS): 19137

Country: COMMONWEALTH OF INDEPENDENT STATES (CIS)

Current information (Y/N): Y

RCS size: MEDIUM

Orbital parameters

Period: 112.807 minutes

Inclination: 82.3079 deg

SMA: 7733.644 km

Apoapsis: 1401.376 km

Periapsis: 1309.641 km

RAAN: 346.033 deg

Eccentricy: 0.00593092

Argument of periapsis: 56.0045 deg

Mean anomaly: 320.0216 deg

Mean motion: 12.76516733 rev/day

Mean motion (dot): 0.00003809 rev/day2

B* drag term: 0.017391808 1/REarth

Two-line elements (TLE)

Creation date: Dec. 21, 2025, 3:42 a.m.

Reference frame: TEME

Reference center: EARTH

Epoch: Dec. 20, 2025, 10:14 p.m. UTC

TLE line 0: 0 SL-14 DEB

TLE line 1: 1 19137U 78100K 25354.92651708 .00003809 00000-0 17392-1 0 9997

TLE line 2: 2 19137 82.3079 346.0330 0059309 56.0045 320.0216 12.76516733113423

Live tracking on map

Real-time ground track for satellite SL-14 DEB.

In-orbit conjunctions

A list of the most updated potential collisions computed for object SL-14 DEB.

Target Orbit TCA Probability of collision Miss distance Type
COSMOS 944 LEO 2024-08-20 16:26:03 0.0008842484 163.0 (m) PAYLOAD

Associated space launch

Mass model of the Meteor-2 meteorological satellite

SL-14 DEB was lifted into orbit during the mission ‘Tsiklon-3 | Meteor-2-GVM’, on board a Tsiklon-3 space rocket.

The launch took place on Oct. 26, 1978, 7 a.m. from 32/2.

For more information about the launch, click the button.

Launch to space Tsiklon-3 | Meteor-2-GVM
Tsiklon-3 | Meteor-2-GVM

Agency: N/A

Status: Launch Successful

Launch date: Oct. 26, 1978, 7 a.m. UTC

Rocket: Tsiklon-3

Launch pad: 32/2

Location: Plesetsk Cosmodrome, Russian Federation

...

Latest news about this satellite

There are no fresh news available about this satellite. Check back as we update our databases every day.


Newsletter sign-up

Weekly statistics, charts and insights to help you stay on top of the space industry.